Location: Newark
(34.6501°N, 117.8502°W)
Time: 02:27:24
(UTC+00:00)

LightSail 2 - Visible Passes

Search period start: 17 October 2019 00:00
Search period end: 27 October 2019 00:00
Orbit: 707 x 722 km, 24.0° (Epoch: 16 October)

Date Brightness Start Highest point End Pass type
(mag) Time Alt. Az. Time Alt. Az. Time Alt. Az.
17 Oct 6.7 02:09:21 10° SW 02:13:32 25° S 02:17:26 11° SE visible
17 Oct 7.5 03:54:56 10° SW 03:56:26 15° SW 03:56:26 15° SW visible
18 Oct 6.8 02:57:14 10° WSW 03:01:07 21° S 03:02:27 19° SSE visible
19 Oct 6.9 01:59:38 10° WSW 02:03:41 23° S 02:07:45 10° SE visible
19 Oct 7.6 03:45:57 10° SW 03:47:29 13° SSW 03:47:29 13° SSW visible
20 Oct 7.3 02:47:55 10° SW 02:51:12 17° SSW 02:53:34 13° SSE visible
21 Oct 7.2 01:50:06 10° WSW 01:53:46 20° S 01:57:27 10° SE visible
22 Oct 7.6 02:39:15 10° SW 02:41:13 12° SSW 02:43:11 10° S visible
23 Oct 7.6 01:40:54 10° SW 01:43:47 15° SSW 01:46:41 10° SSE visible
25 Oct 8.0 01:33:22 10° SSW 01:33:43 10° SSW 01:34:05 10° SSW visible
